Location: Choisy
(48.7685°N, 2.4187°E)
Time: 18:50:04
(UTC+00:00)

Envisat - Pass Details

Date: 27 February 2024
Orbit: 762 x 764 km, 98.3° (Epoch: 23 April)

Event Time Altitude Azimuth Distance (km) Brightness Sun altitude
Rises 03:52:30 0° 10° (N) 3,244 6.6 -27.6°
Reaches altitude 10° 03:54:51 10° 7° (N) 2,313 5.8 -27.3°
Enters shadow 03:58:30 43° 340° (NNW) 1,069 3.6 -26.7°
